Location: Namasale
(1.5000°N, 32.6167°E)
Time: 18:07:07
(UTC+00:00)

Courier 1B - Pass Details

Date: 22 April 2021
Orbit: 962 x 1209 km, 28.3° (Epoch: 09 May)

Event Time Altitude Azimuth Distance (km) Brightness Sun altitude
Rises 15:43:59 0° 315° (NW) 3,638 11.6 1.3°
Reaches altitude 10° 15:46:50 10° 324° (NW) 2,708 10.7 0.6°
Maximum altitude 15:52:44 35° 29° (NNE) 1,548 8.5 -0.8°
Drops below altitude 10° 15:58:54 10° 93° (E) 2,835 9.3 -2.3°
Enters shadow 16:00:58 - 99° (E) 3,506 9.7 -2.8°
Sets 16:01:56 0° 101° (ESE) 3,831 - -3.1°
